sat.trackr.live / text

‹ back to catalog

PRAETORIAN SDA_603

NORAD 65566 · 2025-203B

PAYLOAD ACTIVE UNKNOWN

§ Identity

Operator
Country
US
Launch date
2025-09-10
Launch site
AFWTR
Launch vehicle
Mass (kg)
RCS (m²)

Purposes: military

External: N2YO · Heavens-Above · Gunter

§ Orbital elements

Epoch: 2026-09-20T01:08:43.554912Z

Period
104.05 min
Inclination
81.3000°
Eccentricity
0.0008625
Mean motion
13.83966676 rev/d
Perigee alt
943.5 km
Apogee alt
956.2 km
Semi-major
7,328.0 km
B*
9.5079e-5
RAAN
282.8804°
Arg perigee
297.8532°
Mean anomaly
62.1750°
Rev number
5,182

§ Raw data

PRAETORIAN SDA_6031 65566U 25203B   26263.04772633  .00000117  00000+0  95079-4 0  99932 65566  81.3000 282.8804 0008625 297.8532  62.1750 13.83966676 51823

JSON: /api/v1/satellites/65566 · /tle

For live sub-satellite position, see the globe view (requires WebGL).

§ Visibility from observer

Set your observer location to see the next 7 days of passes ≥ 10°. The values pass through the URL so the page stays shareable.

No JS? Fill the form by hand. The geolocation button needs JavaScript.